Weather History for Spirit of St Louis, MO

Change the Weather History Date:

Tuesday, April 9, 2013

  Actual Average Record
Temperature  
Mean Temperature 72 °F -  
Max Temperature 79 °F 64 °F 91 °F (2001)
Min Temperature 66 °F 41 °F 21 °F (2007)
Cooling Degree Days 7    
Growing Degree Days 22 (Base 50)    
Moisture  
Dew Point 58 °F    
Average Humidity 62    
Maximum Humidity 70    
Minimum Humidity 54    
Precipitation  
Precipitation 0.00 in - - ()
Sea Level Pressure  
Sea Level Pressure 29.82 in    
Wind  
Wind Speed 7 mph (South)    
Max Wind Speed 16 mph    
Max Gust Speed 32 mph    
Visibility 10 miles    
Events      
Averages and records for this station are not official NWS values.
T = Trace of Precipitation, MM = Missing Value Source: NWS Daily Summary

Daily Weather History Graph

Daily Weather History Graph

Search for Another Location

Airport:

Trip Planner

Search our weather history database for the weather conditions in past years. The results will help you decide how hot, cold, wet, or windy it might be!

Date:

Astronomy

Apr. 09, 2013 Rise Set
Actual Time 6:34 AM CDT 7:33 PM CDT
Civil Twilight 6:07 AM CDT 8:01 PM CDT
Nautical Twilight 5:35 AM CDT 8:33 PM CDT
Astronomical Twilight 5:02 AM CDT 9:07 PM CDT
Moon 5:57 AM CDT (4/9) 7:09 PM CDT (4/9)
Length of Visible Light 13h 53m
Length of Day
12h 59m
Waning Crescent, 1% of the Moon is Illuminated
Apr 9
Waning Crescent
Apr 10
New
Apr 18
First Quarter
Apr 25
Full
May 2
Last Quarter

Hourly Weather History & Observations

Time (CDT) Temp. Dew Point Humidity Pressure Visibility Wind Dir Wind Speed Gust Speed Precip Events Conditions
12:54 AM 69.1 °F 57.0 °F 65% 29.84 in 10.0 mi Variable 4.6 mph - N/A   Overcast
1:54 AM 69.1 °F 57.0 °F 65% 29.83 in 10.0 mi SE 4.6 mph - N/A   Mostly Cloudy
2:54 AM 66.9 °F 55.9 °F 68% 29.81 in 10.0 mi ESE 3.5 mph - N/A   Partly Cloudy
3:54 AM 66.9 °F 55.9 °F 68% 29.79 in 10.0 mi SE 8.1 mph - N/A   Clear
4:54 AM 66.0 °F 55.0 °F 68% 29.79 in 10.0 mi ESE 4.6 mph - N/A   Mostly Cloudy
5:54 AM 66.9 °F 55.0 °F 66% 29.80 in 10.0 mi Variable 6.9 mph - N/A   Overcast
6:54 AM 66.9 °F 55.9 °F 68% 29.82 in 10.0 mi South 8.1 mph - N/A   Overcast
7:54 AM 66.9 °F 55.9 °F 68% 29.83 in 10.0 mi SSE 8.1 mph - N/A   Overcast
8:54 AM 68.0 °F 57.0 °F 68% 29.83 in 10.0 mi South 12.7 mph 19.6 mph N/A   Overcast
9:54 AM 71.1 °F 57.0 °F 61% 29.85 in 10.0 mi SSW 13.8 mph 25.3 mph N/A   Overcast
10:54 AM 73.0 °F 57.0 °F 57% 29.86 in 10.0 mi SSW 15.0 mph 24.2 mph N/A   Overcast
11:54 AM 72.0 °F 57.9 °F 61% 29.86 in 10.0 mi SSW 16.1 mph 32.2 mph N/A   Overcast
12:54 PM 73.9 °F 59.0 °F 59% 29.85 in 10.0 mi SSW 13.8 mph 25.3 mph N/A   Overcast
1:54 PM 75.0 °F 59.0 °F 57% 29.84 in 10.0 mi SSW 11.5 mph 26.5 mph N/A   Overcast
2:54 PM 75.9 °F 59.0 °F 56% 29.83 in 10.0 mi SSW 15.0 mph - N/A   Mostly Cloudy
3:54 PM 75.9 °F 60.1 °F 58% 29.81 in 10.0 mi South 13.8 mph 19.6 mph N/A   Mostly Cloudy
4:54 PM 78.1 °F 60.1 °F 54% 29.80 in 10.0 mi South 10.4 mph 17.3 mph N/A   Mostly Cloudy
5:54 PM 78.1 °F 60.1 °F 54% 29.79 in 10.0 mi South 10.4 mph - N/A   Mostly Cloudy
6:54 PM 77.0 °F 59.0 °F 54% 29.78 in 10.0 mi South 4.6 mph - N/A   Partly Cloudy
7:54 PM 75.0 °F 59.0 °F 57% 29.78 in 10.0 mi SSE 3.5 mph - N/A   Clear
8:54 PM 72.0 °F 57.9 °F 61% 29.80 in 10.0 mi Calm Calm - N/A   Clear
9:54 PM 73.9 °F 57.0 °F 55% 29.81 in 10.0 mi Variable 3.5 mph - N/A   Clear
10:54 PM 66.9 °F 57.0 °F 70% 29.80 in 10.0 mi Calm Calm - N/A   Clear
11:54 PM 66.9 °F 57.0 °F 70% 29.78 in 10.0 mi Calm Calm - N/A   Clear